| time (UTC) | temp F | wind direction | speed MPH | gust MPH | rain 1hr in | rain 24hr in | rain mn in | humidity % | barometer mb |
| 20260506174552 | 77 | 276 | 4.0 | 16.0 | 0.00 | 0.00 | 0.00 | 78 | 1017.0 |
| 20260506173050 | 77 | 196 | 4.0 | 10.0 | 0.00 | 0.00 | 0.00 | 78 | 1017.2 |
| 20260506171559 | 76 | 211 | 4.0 | 12.0 | 0.00 | 0.00 | 0.00 | 80 | 1017.3 |
| 20260506170057 | 77 | 242 | 4.0 | 10.0 | 0.00 | 0.00 | 0.00 | 78 | 1017.4 |
| 20260506164551 | 76 | 236 | 5.0 | 17.0 | 0.00 | 0.00 | 0.00 | 78 | 1017.4 |
| 20260506163052 | 77 | 274 | 4.0 | 11.0 | 0.00 | 0.00 | 0.00 | 78 | 1017.6 |
| 20260506161550 | 77 | 225 | 6.0 | 10.0 | 0.00 | 0.00 | 0.00 | 79 | 1017.4 |
| 20260506160101 | 76 | 267 | 4.0 | 11.0 | 0.00 | 0.00 | 0.00 | 79 | 1017.6 |
| 20260506154557 | 76 | 221 | 4.0 | 10.0 | 0.00 | 0.00 | 0.00 | 79 | 1017.7 |
| 20260506153051 | 76 | 251 | 4.0 | 13.0 | 0.00 | 0.00 | 0.00 | 81 | 1017.6 |
| 20260506151556 | 75 | 206 | 4.0 | 10.0 | 0.00 | 0.00 | 0.00 | 80 | 1017.7 |
| 20260506150055 | 75 | 222 | 3.0 | 9.0 | 0.00 | 0.00 | 0.00 | 81 | 1017.7 |
| 20260506144601 | 75 | 266 | 4.0 | 11.0 | 0.00 | 0.00 | 0.00 | 81 | 1017.4 |
| 20260506143053 | 75 | 221 | 5.0 | 12.0 | 0.00 | 0.00 | 0.00 | 79 | 1017.4 |
| 20260506141553 | 75 | 250 | 3.0 | 9.0 | 0.00 | 0.00 | 0.00 | 80 | 1017.1 |
| 20260506140052 | 75 | 201 | 5.0 | 10.0 | 0.00 | 0.00 | 0.00 | 77 | 1017.2 |
| 20260506134551 | 75 | 180 | 3.0 | 10.0 | 0.00 | 0.00 | 0.00 | 79 | 1017.1 |
| 20260506133053 | 74 | 265 | 5.0 | 11.0 | 0.00 | 0.00 | 0.00 | 79 | 1017.1 |
| 20260506131605 | 74 | 304 | 3.0 | 9.0 | 0.00 | 0.00 | 0.00 | 81 | 1017.0 |
| 20260506130052 | 73 | 217 | 5.0 | 12.0 | 0.00 | 0.00 | 0.00 | 81 | 1016.8 |
| 20260506124552 | 73 | 200 | 4.0 | 10.0 | 0.00 | 0.00 | 0.00 | 82 | 1016.6 |
| 20260506123057 | 72 | 248 | 3.0 | 11.0 | 0.00 | 0.00 | 0.00 | 84 | 1016.5 |
| 20260506121556 | 71 | 199 | 3.0 | 8.0 | 0.00 | 0.00 | 0.00 | 87 | 1016.5 |
| 20260506120053 | 70 | 281 | 1.0 | 6.0 | 0.00 | 0.00 | 0.00 | 90 | 1016.4 |
| 20260506114556 | 67 | 240 | 1.0 | 5.0 | 0.00 | 0.00 | 0.00 | 93 | 1016.3 |
| 20260506113053 | 65 | 234 | 1.0 | 4.0 | 0.00 | 0.00 | 0.00 | 93 | 1016.0 |
| 20260506111550 | 61 | 171 | 0.0 | 1.0 | 0.00 | 0.00 | 0.00 | 92 | 1016.0 |
| 20260506110052 | 61 | 0 | 0.0 | 1.0 | 0.00 | 0.00 | 0.00 | 92 | 1016.2 |
| 20260506104555 | 61 | 355 | 0.0 | 1.0 | 0.00 | 0.00 | 0.00 | 92 | 1016.0 |
| 20260506103054 | 61 | 0 | 0.0 | 0.0 | 0.00 | 0.00 | 0.00 | 91 | 1015.8 |
| 20260506101550 | 60 | 0 | 0.0 | 0.0 | 0.00 | 0.00 | 0.00 | 90 | 1015.9 |
| 20260506100104 | 61 | 0 | 0.0 | 1.0 | 0.00 | 0.00 | 0.00 | 89 | 1015.8 |
| 20260506094552 | 62 | 0 | 0.0 | 0.0 | 0.00 | 0.00 | 0.00 | 90 | 1015.8 |
| 20260506093053 | 63 | 0 | 0.0 | 0.0 | 0.00 | 0.00 | 0.00 | 89 | 1015.9 |
| 20260506091556 | 63 | 0 | 0.0 | 1.0 | 0.00 | 0.00 | 0.00 | 88 | 1016.0 |
| 20260506090050 | 64 | 0 | 0.0 | 1.0 | 0.00 | 0.00 | 0.00 | 87 | 1015.9 |
| 20260506084549 | 66 | 235 | 0.0 | 2.0 | 0.00 | 0.00 | 0.00 | 86 | 1016.0 |
| 20260506083050 | 67 | 0 | 0.0 | 3.0 | 0.00 | 0.00 | 0.00 | 85 | 1015.9 |
| 20260506081554 | 67 | 234 | 0.0 | 3.0 | 0.00 | 0.00 | 0.00 | 85 | 1015.9 |
| 20260506073055 | 67 | 240 | 0.0 | 4.0 | 0.00 | 0.00 | 0.00 | 85 | 1016.0 |
| 20260506071559 | 67 | 233 | 1.0 | 5.0 | 0.00 | 0.00 | 0.00 | 85 | 1015.7 |
| 20260506061551 | 66 | 254 | 1.0 | 4.0 | 0.00 | 0.00 | 0.00 | 85 | 1016.2 |
| 20260506044552 | 65 | 0 | 0.0 | 3.0 | 0.00 | 0.00 | 0.00 | 80 | 1016.7 |
| 20260506043047 | 66 | 207 | 1.0 | 4.0 | 0.00 | 0.00 | 0.00 | 80 | 1016.8 |
| 20260506041559 | 66 | 232 | 2.0 | 5.0 | 0.00 | 0.00 | 0.00 | 80 | 1016.9 |
| 20260506040109 | 66 | 231 | 2.0 | 4.0 | 0.00 | 0.00 | 0.00 | 79 | 1016.9 |
| 20260506034547 | 66 | 202 | 1.0 | 4.0 | 0.00 | 0.00 | 0.00 | 79 | 1016.8 |
| 20260506033050 | 66 | 241 | 1.0 | 4.0 | 0.00 | 0.00 | 0.00 | 78 | 1016.8 |
| 20260506031553 | 65 | 223 | 1.0 | 3.0 | 0.00 | 0.00 | 0.00 | 77 | 1016.7 |
| 20260506024558 | 66 | 207 | 1.0 | 4.0 | 0.00 | 0.00 | 0.00 | 76 | 1016.8 |
| 20260506023058 | 65 | 132 | 3.0 | 7.0 | 0.00 | 0.00 | 0.00 | 77 | 1016.7 |
| 20260506021559 | 65 | 236 | 0.0 | 3.0 | 0.00 | 0.00 | 0.00 | 76 | 1017.0 |
| 20260506020052 | 65 | 242 | 1.0 | 3.0 | 0.00 | 0.00 | 0.00 | 75 | 1016.9 |
| 20260506014600 | 65 | 201 | 1.0 | 5.0 | 0.00 | 0.00 | 0.00 | 76 | 1016.8 |
| 20260506013054 | 65 | 213 | 1.0 | 4.0 | 0.00 | 0.00 | 0.00 | 75 | 1016.5 |
| 20260506011550 | 65 | 0 | 0.0 | 3.0 | 0.00 | 0.00 | 0.00 | 74 | 1016.7 |
| 20260506010053 | 65 | 219 | 1.0 | 3.0 | 0.00 | 0.00 | 0.00 | 74 | 1016.8 |
| 20260506004551 | 66 | 195 | 0.0 | 4.0 | 0.00 | 0.00 | 0.00 | 74 | 1016.3 |
| 20260506003046 | 66 | 0 | 1.0 | 4.0 | 0.00 | 0.00 | 0.00 | 73 | 1016.5 |
| 20260506001553 | 67 | 0 | 1.0 | 7.0 | 0.00 | 0.00 | 0.00 | 72 | 1016.6 |
| 20260506000059 | 69 | 206 | 2.0 | 6.0 | 0.00 | 0.00 | 0.00 | 71 | 1016.8 |
| 20260505234548 | 69 | 211 | 3.0 | 8.0 | 0.00 | 0.00 | 0.00 | 70 | 1016.6 |
| 20260505233059 | 70 | 167 | 3.0 | 8.0 | 0.00 | 0.00 | 0.00 | 69 | 1016.4 |
| 20260505231554 | 70 | 217 | 4.0 | 11.0 | 0.00 | 0.00 | 0.00 | 70 | 1016.2 |
| 20260505230050 | 70 | 249 | 5.0 | 11.0 | 0.00 | 0.00 | 0.00 | 68 | 1016.5 |
| 20260505224551 | 72 | 197 | 6.0 | 11.0 | 0.00 | 0.00 | 0.00 | 67 | 1016.6 |
| 20260505223052 | 72 | 242 | 5.0 | 12.0 | 0.00 | 0.00 | 0.00 | 67 | 1016.6 |
| 20260505221601 | 73 | 221 | 6.0 | 11.0 | 0.00 | 0.00 | 0.00 | 66 | 1016.7 |
| 20260505220048 | 74 | 261 | 4.0 | 10.0 | 0.00 | 0.00 | 0.00 | 66 | 1016.6 |
| 20260505214548 | 74 | 216 | 5.0 | 12.0 | 0.00 | 0.00 | 0.00 | 65 | 1016.7 |
| 20260505213051 | 74 | 184 | 3.0 | 10.0 | 0.00 | 0.00 | 0.00 | 67 | 1017.0 |
| 20260505211551 | 74 | 182 | 3.0 | 8.0 | 0.00 | 0.00 | 0.00 | 64 | 1017.0 |
| 20260505210050 | 74 | 225 | 2.0 | 10.0 | 0.00 | 0.00 | 0.00 | 65 | 1016.8 |
| 20260505204553 | 75 | 246 | 5.0 | 9.0 | 0.00 | 0.00 | 0.00 | 63 | 1016.8 |
| 20260505203058 | 75 | 256 | 5.0 | 11.0 | 0.00 | 0.00 | 0.00 | 64 | 1016.9 |
| 20260505201558 | 75 | 282 | 3.0 | 11.0 | 0.00 | 0.00 | 0.00 | 63 | 1017.1 |
| 20260505200056 | 75 | 187 | 4.0 | 12.0 | 0.00 | 0.00 | 0.00 | 62 | 1017.2 |
| 20260505194559 | 74 | 257 | 5.0 | 10.0 | 0.00 | 0.00 | 0.00 | 63 | 1017.6 |
| 20260505193124 | 75 | 205 | 3.0 | 9.0 | 0.00 | 0.00 | 0.00 | 61 | 1017.9 |
| 20260505191548 | 75 | 239 | 3.0 | 10.0 | 0.00 | 0.00 | 0.00 | 60 | 1018.2 |
| 20260505190053 | 75 | 267 | 4.0 | 11.0 | 0.00 | 0.00 | 0.00 | 59 | 1018.3 |
| 20260505184602 | 76 | 221 | 4.0 | 10.0 | 0.00 | 0.00 | 0.00 | 60 | 1018.4 |
| 20260505183100 | 75 | 286 | 5.0 | 10.0 | 0.00 | 0.00 | 0.00 | 60 | 1018.3 |
| 20260505181551 | 76 | 220 | 4.0 | 11.0 | 0.00 | 0.00 | 0.00 | 61 | 1018.0 |
| 20260505180054 | 75 | 252 | 6.0 | 12.0 | 0.00 | 0.00 | 0.00 | 60 | 1018.2 |